Location: Betra
(48.4113°N, 8.6634°E)
Time: 23:05:43
(UTC+00:00)

Aureole 3 - Pass Details

Date: 06 August 2024
Orbit: 375 x 1118 km, 82.5° (Epoch: 10 September)

Event Time Altitude Azimuth Distance (km) Brightness Sun altitude
Rises 01:37:02 0° 352° (N) 2,903 7.8 -19.2°
Reaches altitude 10° 01:39:30 10° 355° (N) 1,869 6.8 -19.0°
Maximum altitude 01:43:30 66° 78° (ENE) 535 3.3 -18.6°
Enters shadow 01:44:53 33° 151° (SSE) 798 3.9 -18.5°
